Riverton, WY

11:15 AM MDT on July 25, 2017 (GMT -0600)
Riverton Regional

Weather History for KRIW - April, 2014

Change the Weather History Date:

Sunday, April 13, 2014

  Actual Average Record
Temperature  
Mean Temperature 24 °F 43 °F  
Max Temperature 31 °F 56 °F 75 °F (2000)
Min Temperature 17 °F 31 °F 17 °F (2014)
Degree Days  
Heating Degree Days 41 22  
Month to date heating degree days 287 301  
Since 1 July heating degree days 7084 7073  
Cooling Degree Days 0 0  
Month to date cooling degree days 0 0  
Year to date cooling degree days 0 0  
Moisture  
Dew Point 18 °F    
Average Humidity 75    
Maximum Humidity 92    
Minimum Humidity 58    
Precipitation  
Precipitation 0.04 in 0.04 in 0.07 in (2011)
Month to date precipitation 0.06 0.43  
Year to date precipitation 1.46 1.49  
Snow  
Snow 0.30 in - - ()
Month to date snowfall 0.3  
Since 1 July snowfall 52.9  
Snow Depth 1.00 in    
Sea Level Pressure  
Sea Level Pressure 30.10 in    
Wind  
Wind Speed 18 mph (NNE)    
Max Wind Speed 33 mph    
Max Gust Speed 39 mph    
Visibility 6 miles    
Events Fog , Snow    
T = Trace of Precipitation, MM = Missing Value Source: NWS Daily Summary

Daily Weather History Graph

Daily Weather History Graph

Search for Another Location

Airport or City:

Trip Planner

Search our weather history database for the weather conditions in past years. The results will help you decide how hot, cold, wet, or windy it might be!

Date:

Astronomy

Apr. 13, 2014 Rise Set
Actual Time 6:35 AM MDT 7:54 PM MDT
Civil Twilight 6:05 AM MDT 8:23 PM MDT
Nautical Twilight 5:30 AM MDT 8:59 PM MDT
Astronomical Twilight 4:53 AM MDT 9:36 PM MDT
Moon 6:33 PM MDT (4/13) 5:38 AM MDT (4/13)
Length of Visible Light 14h 17m
Length of Day
13h 19m
Waxing Gibbous, 97% of the Moon is Illuminated
Apr 13
Waxing Gibbous
Apr 15
Full
Apr 22
Last Quarter
Apr 29
New
May 6
First Quarter

Hourly Weather History & Observations

Time (MDT) Temp. Windchill Dew Point Humidity Pressure Visibility Wind Dir Wind Speed Gust Speed Precip Events Conditions
12:53 AM 32.0 °F 21.2 °F 26.1 °F 79% 29.86 in 10.0 mi NE 16.1 mph - N/A   Overcast
1:19 AM 30.0 °F 20.5 °F 26.1 °F 85% 29.91 in 10.0 mi NE 11.5 mph - N/A   Overcast
1:53 AM 28.9 °F 19.2 °F 26.1 °F 89% 29.88 in 6.0 mi NE 11.5 mph - 0.00 in Snow Light Snow
2:15 AM 28.9 °F 16.5 °F 21.9 °F 75% 29.90 in 10.0 mi NE 18.4 mph 24.2 mph 0.00 in   Overcast
2:53 AM 28.0 °F 17.5 °F 21.9 °F 78% 29.88 in 9.0 mi North 12.7 mph - 0.00 in Snow Light Snow
3:53 AM 27.0 °F 14.7 °F 21.0 °F 78% 29.90 in 10.0 mi NNE 16.1 mph - 0.00 in   Overcast
4:53 AM 25.0 °F 11.7 °F 19.0 °F 78% 29.92 in 8.0 mi NNE 17.3 mph 31.1 mph 0.00 in Snow Light Snow
5:53 AM 24.1 °F 9.4 °F 19.0 °F 81% 29.95 in 8.0 mi NNE 20.7 mph 26.5 mph 0.01 in Snow Light Snow
6:29 AM 21.9 °F 6.5 °F 19.0 °F 89% 29.96 in 2.5 mi NNE 20.7 mph - 0.01 in Snow Light Snow
6:53 AM 21.9 °F 5.8 °F 19.0 °F 89% 29.99 in 1.8 mi NNE 23.0 mph 28.8 mph 0.01 in Snow Light Snow
7:00 AM 21.9 °F 6.5 °F 18.0 °F 85% 29.97 in 1.8 mi NNE 20.7 mph - 0.00 in Snow Light Snow
7:30 AM 21.9 °F 7.8 °F 18.0 °F 85% 29.99 in 1.2 mi NNE 17.3 mph 28.8 mph 0.00 in Snow Light Snow
7:48 AM 21.2 °F 3.9 °F 17.6 °F 86% 29.99 in 0.5 mi NNE 26.5 mph 32.2 mph 0.00 in Fog , Snow Snow
7:53 AM 21.0 °F 4.6 °F 18.0 °F 88% 30.05 in 0.2 mi NNE 23.0 mph 32.2 mph 0.00 in Fog , Snow Snow
8:13 AM 21.0 °F 3.0 °F 18.0 °F 88% 30.00 in 0.5 mi NNE 28.8 mph 35.7 mph 0.00 in Fog , Snow Snow
8:26 AM 21.0 °F 4.6 °F 18.0 °F 88% 30.00 in 0.5 mi North 23.0 mph 33.4 mph 0.01 in Fog , Snow Light Snow
8:33 AM 21.0 °F 4.3 °F 18.0 °F 88% 30.01 in 1.0 mi NNE 24.2 mph - 0.01 in Snow Light Snow
8:53 AM 21.0 °F 4.6 °F 17.1 °F 85% 30.08 in 1.8 mi NNE 23.0 mph - 0.01 in Snow Light Snow
9:36 AM 21.9 °F 7.3 °F 16.0 °F 78% 30.03 in 2.5 mi NNE 18.4 mph 31.1 mph 0.00 in Snow Light Snow
9:53 AM 21.9 °F 6.2 °F 16.0 °F 78% 30.11 in 1.8 mi NNE 21.9 mph 29.9 mph 0.00 in Snow Light Snow
10:49 AM 21.2 °F 3.5 °F 15.8 °F 80% 30.07 in 0.8 mi North 27.6 mph 34.5 mph 0.00 in Snow Light Snow
10:53 AM 21.0 °F 3.9 °F 16.0 °F 81% 30.16 in 0.8 mi NNE 25.3 mph 33.4 mph 0.00 in Snow Light Snow
11:39 AM 21.9 °F 3.7 °F 16.0 °F 78% 30.08 in 1.2 mi NNE 31.1 mph 39.1 mph 0.00 in Snow Light Snow
11:46 AM 21.9 °F 3.4 °F 16.0 °F 78% 30.08 in 1.2 mi NNE 32.2 mph 39.1 mph 0.00 in Snow Light Snow
11:53 AM 21.9 °F 3.7 °F 17.1 °F 82% 30.19 in 1.2 mi NNE 31.1 mph 39.1 mph 0.00 in Snow Light Snow
12:53 PM 25.0 °F 10.9 °F 19.0 °F 78% 30.18 in 1.8 mi NNE 19.6 mph 27.6 mph 0.01 in Snow Light Snow
12:57 PM 26.1 °F 10.1 °F 19.0 °F 75% 30.10 in 3.0 mi North 27.6 mph 32.2 mph 0.00 in Snow Light Snow
1:19 PM 26.1 °F 10.4 °F 18.0 °F 71% 30.10 in 8.0 mi NNE 26.5 mph 35.7 mph 0.00 in   Overcast
1:53 PM 27.0 °F 11.9 °F 19.0 °F 72% 30.20 in 10.0 mi North 25.3 mph 29.9 mph 0.00 in   Overcast
2:53 PM 28.0 °F 13.9 °F 18.0 °F 66% 30.22 in 10.0 mi NNE 23.0 mph 31.1 mph 0.00 in   Overcast
3:53 PM 28.9 °F 16.5 °F 18.0 °F 64% 30.22 in 10.0 mi NE 18.4 mph 26.5 mph 0.00 in   Overcast
4:53 PM 28.9 °F 16.5 °F 16.0 °F 58% 30.25 in 10.0 mi NNE 18.4 mph - N/A   Overcast
5:53 PM 26.6 °F 12.7 °F 17.6 °F 69% 30.17 in 10.0 mi NNE 20.7 mph 28.8 mph N/A   Overcast
6:53 PM 25.0 °F 11.7 °F 17.1 °F 72% 30.33 in 10.0 mi NE 17.3 mph 24.2 mph N/A   Overcast
7:53 PM 24.1 °F 11.0 °F 16.0 °F 71% 30.37 in 10.0 mi NNE 16.1 mph - 0.00 in   Overcast
8:53 PM 23.0 °F 13.9 °F 17.1 °F 78% 30.41 in 10.0 mi East 8.1 mph - N/A   Overcast
9:53 PM 23.0 °F 11.7 °F 12.9 °F 65% 30.43 in 10.0 mi NE 11.5 mph - N/A   Scattered Clouds
10:53 PM 21.9 °F 11.7 °F 10.9 °F 63% 30.45 in 10.0 mi NE 9.2 mph - N/A   Clear
11:53 PM 19.9 °F 14.9 °F 12.9 °F 74% 30.46 in 10.0 mi South 3.5 mph - N/A   Clear